Location: *
(49.5667°N, 1.3667°W)
Time: 10:45:59
(UTC+00:00)

Cosmos 1842 - Pass Details

Date: 20 September 2019
Orbit: 522 x 538 km, 82.5° (Epoch: 21 October)

Event Time Altitude Azimuth Distance (km) Brightness Sun altitude
Rises 18:44:16 0° 347° (NNW) 2,707 7.2 -6.6°
Reaches altitude 10° 18:46:26 10° 344° (NNW) 1,809 6.3 -6.9°
Maximum altitude 18:50:22 62° 264° (W) 611 3.9 -7.5°
Drops below altitude 10° 18:54:15 10° 184° (S) 1,788 5.9 -8.2°
Sets 18:56:24 0° 180° (S) 2,671 6.7 -8.5°
